STARLINK AL

Last updated on Sat Jul 15 2023 00:02:05 GMT+0000 (Coordinated Universal Time)

1 57252U 23094AL 23195.75001157 -.01068685 34069-3 -30410-2 0 9996 2 57252 42.9941 276.0440 0024516 199.6505 243.7607 15.91851298 1300

Satellite not in orbit

STARLINK AL